Overview Statistics Trail Chart Weather Telemetry Raw packets
 

This is the latest recevied weather packets stored in our database for station/object EA4URC-10. If no packets are shown the sender has not sent any weather packets the latest 10 day(s).

<< 17 18 19 20 21 >>
Time Temp. Humidity Pressure Rain* Wind** Luminosity Snow
1787800175 12.22° C 70% 1030.4 hPa - - - -
1787798380 12.78° C 65% 1030.5 hPa - - - -
1787796580 13.33° C 66% 1030.6 hPa - - - -
1787794779 13.89° C 63% 1030.7 hPa - - - -
1787793430 14.44° C 58% 1030.9 hPa - - - -
1787792979 14.44° C 58% 1030.9 hPa - - - -
1787791178 15° C 52% 1031.1 hPa - - - -
1787789377 15.56° C 47% 1031 hPa - - - -
1787787577 16.11° C 43% 1031.1 hPa - - - -
1787785776 16.67° C 40% 1031.1 hPa - - - -
1787783976 16.67° C 38% 1031.1 hPa - - - -
1787782596 17.22° C 39% 1031.2 hPa - - - -
1787782175 17.22° C 39% 1031.2 hPa - - - -
1787780375 16.67° C 41% 1031.1 hPa - - - -
1787778574 17.22° C 40% 1031 hPa - - - -
1787776779 17.78° C 36% 1031 hPa - - - -
1787774979 18.89° C 29% 1030.7 hPa - - - -
1787773178 18.89° C 27% 1030.4 hPa - - - -
1787771378 19.44° C 25% 1030.3 hPa - - - -
1787769577 20.56° C 23% 1030.3 hPa - - - -
1787767777 21.67° C 21% 1030.1 hPa - - - -
1787765976 23.89° C 21% 1030.1 hPa - - - -
1787764175 25.56° C 16% 1030.1 hPa - - - -
1787762375 25° C 18% 1029.7 hPa - - - -
1787760574 26.11° C 19% 1030 hPa - - - -

* Rain since midnight (hover to see other rain measurements)
** Current wind speed in m/s (hover to see current wind gust speed)